Terug naar catalogus

NOAA 16 DEB

ActiefPO
NORAD 42415·DEBRIS·🇺🇸 United States

Gelanceerd Sep 21, 2000 vanaf Vandenberg Space Force Base

Loading…

Volgende Passages (komende 24 uur)

TLE

VersSource: Space-Track

Epoch: Sep 14, 2026, 09:18 UTC

1 42415U 00055TK  26257.38790178  .00003654  00000-0  10249-2 0  9997
2 42415  99.0229  93.5930 0020867 234.3424 125.5823 14.46545007547270

Volg NOAA 16 DEB in realtime met AllMySat

Download on the App Store